Flag for U.S.A. Weather past 2 weeks in Lexington, North Carolina, U.S.A.

Now
35 °F

Clear.


Feels Like: 35 °F
Forecast: 40 / 69 °F
Wind: No wind

Location: Davidson County Airport

Current Time: Oct 25, 2014 at 8:23:12 AM

Latest Report: Oct 25, 2014 at 7:55 AM


Visibility: 7 mi

Pressure: 30.03 "Hg

Humidity: 97%

Dew point: 34 °F

Location of LexingtonLocation

Historic Weather in Lexington — Graph

°F

Lexington temperature yesterday

Maximum temperature yesterday: 68 °F (at 4:15 PM)
Minimum temperature yesterday: 39 °F (at 6:55 AM)
Average temperature yesterday: 52 °F

Past Weeks' High & Low Weather Summary

 TemperatureHumidityPressure
High84 °F (Oct 10, 3:15 PM)99% (Oct 11, 1:35 AM)30.27 "Hg (Oct 11, 1:35 AM)
Low35 °F (Oct 25, 6:55 AM)34% (Oct 19, 4:55 PM)29.78 "Hg (Oct 16, 4:15 AM)
Average59 °F77%29.99 "Hg
* Reported Oct 10 7:15 AM — Oct 25 7:15 AM, Lexington, Weather by CustomWeather, © 2014

Note: Actual official high and low records may vary slightly from our data, if they occured in-between our weather recording intervals... More about our weather records

Advertising

Lexington weather history for previous 24 hours

 ConditionsComfort  
Time TempWeatherWind HumidityBarometerVisibility
7:15 AM
Oct 25
36 °FClear.No wind97%30.03 "Hg10 mi
6:55 AM35 °FClear.No wind95%30.02 "Hg10 mi
6:35 AM35 °FClear.No wind97%30.02 "Hg7 mi
6:15 AM37 °FClear.No wind98%30.01 "Hg7 mi
5:55 AM36 °FClear.No wind97%30.01 "Hg7 mi
5:35 AM35 °FClear.No wind97%30.00 "Hg10 mi
5:15 AM35 °FClear.No wind97%30.00 "Hg10 mi
4:55 AM37 °FClear.No wind97%30.00 "Hg7 mi
4:15 AM37 °FClear.No wind97%29.99 "Hg7 mi
3:55 AM37 °FClear.No wind98%30.00 "Hg7 mi
3:35 AM37 °FClear.No wind97%30.00 "Hg7 mi
3:15 AM39 °FClear.No wind98%30.00 "Hg7 mi
2:55 AM39 °FClear.No wind97%29.99 "Hg7 mi
2:15 AM40 °FClear.No wind97%30.00 "Hg7 mi
1:55 AM41 °FClear.No wind97%30.00 "Hg7 mi
1:35 AM42 °FClear.No wind97%30.00 "Hg7 mi
1:15 AM42 °FClear.No wind97%30.00 "Hg7 mi
12:55 AM43 °FClear.No wind96%30.00 "Hg10 mi
12:35 AM43 °FClear.No wind97%30.00 "Hg10 mi
12:15 AM44 °FClear.No wind96%30.00 "Hg10 mi
11:55 PM
Oct 24
44 °FClear.No wind96%30.01 "Hg10 mi
11:15 PM46 °FClear.No wind93%30.01 "Hg10 mi
10:55 PM46 °FClear.No wind92%30.02 "Hg10 mi
10:35 PM47 °FClear.No wind90%30.02 "Hg10 mi
10:15 PM49 °FClear.No wind86%30.02 "Hg10 mi
9:55 PM49 °FClear.No wind89%30.02 "Hg10 mi
9:35 PM50 °FClear.No wind85%30.01 "Hg10 mi
9:15 PM51 °FClear.No wind84%30.00 "Hg10 mi
8:55 PM52 °FClear.No wind83%30.00 "Hg10 mi
8:35 PM54 °FClear.No wind77%29.99 "Hg10 mi
8:15 PM54 °FClear.No wind74%29.99 "Hg10 mi
7:55 PM55 °FClear.No wind72%29.99 "Hg10 mi
7:15 PM56 °FSunny.No wind69%29.97 "Hg10 mi
6:55 PM57 °FSunny.No wind71%29.98 "Hg10 mi
6:35 PM58 °FSunny.No wind65%29.98 "Hg10 mi
6:15 PM60 °FSunny.No wind62%29.98 "Hg10 mi
5:55 PM62 °FSunny.No wind59%29.98 "Hg10 mi
5:15 PM64 °FSunny.No wind53%29.98 "Hg10 mi
4:55 PM65 °FSunny.No wind43%29.99 "Hg10 mi
4:35 PM66 °FSunny.No wind43%29.99 "Hg10 mi
4:15 PM68 °FSunny.3 mph40%29.99 "Hg10 mi
3:55 PM68 °FSunny.3 mph41%29.98 "Hg10 mi
3:35 PM67 °FSunny.No wind39%29.98 "Hg10 mi
3:15 PM66 °FSunny.No wind36%29.99 "Hg10 mi
2:55 PM67 °FSunny.3 mph37%29.99 "Hg10 mi
2:35 PM67 °FSunny.No wind38%29.99 "Hg10 mi
2:15 PM66 °FSunny.No wind38%29.99 "Hg10 mi
1:55 PM68 °FSunny.No wind38%30.01 "Hg10 mi
1:35 PM67 °FSunny.3 mph37%30.02 "Hg10 mi
1:15 PM66 °FSunny.3 mph41%30.03 "Hg10 mi
12:55 PM65 °FSunny.No wind41%30.04 "Hg10 mi
12:35 PM64 °FSunny.No wind47%30.05 "Hg10 mi
12:15 PM63 °FSunny.No wind49%30.05 "Hg10 mi
11:55 AM62 °FSunny.3 mph50%30.06 "Hg10 mi
11:15 AM58 °FSunny.No wind57%30.08 "Hg10 mi
10:55 AM58 °FSunny.No wind58%30.08 "Hg10 mi
10:35 AM56 °FSunny.No wind60%30.08 "Hg10 mi
10:15 AM55 °FSunny.No wind63%30.08 "Hg10 mi
9:55 AM52 °FSunny.No wind72%30.08 "Hg10 mi
9:35 AM50 °FSunny.No wind77%30.08 "Hg10 mi
9:15 AM47 °FSunny.No wind81%30.08 "Hg10 mi
8:55 AM45 °FSunny.No wind89%30.07 "Hg10 mi
8:35 AM41 °FSunny.No wind96%30.06 "Hg7 mi
8:15 AM39 °FClear.No wind97%30.06 "Hg7 mi
Weather by CustomWeather, © 2014

See weather overviewHow to use our weather pages